HAZ7507 ZSPD-RPLL

Flight info

Callsign HAZ7507
Flight time 2h 58m
Altitude 36100
Route PONAB W13 BEGMO W117 DST B221 LJG A470 BEBEM/N0469F361 A470 DOTMI DCT ENROM DCT NOMAN A461 AVMUP W16 TADEL TADEL3R
Aircraft B738/M-SDE2E3FGHIRWXY/LB1

Departure

Time 2026-05-06 12:43
Airport Shanghai Pudong International Airport (ZSPD)

Arrival

Time 2026-05-06 15:41
Airport Ninoy Aquino International Airport (RPLL)
Time Latitude Longitude Altitude Speed Heading
2026-05-06 12:43 31.04877 121.82432 3537 ft 233 kts 163°
2026-05-06 12:43 31.03289 121.82999 4150 ft 238 kts 163°
2026-05-06 12:44 31.01660 121.83581 4655 ft 251 kts 163°
2026-05-06 12:44 30.99956 121.84191 5249 ft 259 kts 163°
2026-05-06 12:44 30.98212 121.84944 5868 ft 268 kts 159°
2026-05-06 12:44 30.96457 121.85787 6534 ft 274 kts 159°
2026-05-06 12:45 30.94663 121.86629 7237 ft 278 kts 160°
2026-05-06 12:45 30.92839 121.87466 7895 ft 285 kts 162°
2026-05-06 12:45 30.88990 121.88872 9273 ft 294 kts 164°
2026-05-06 12:46 30.87004 121.89604 9975 ft 299 kts 163°
2026-05-06 12:46 30.84978 121.90350 10739 ft 302 kts 164°
2026-05-06 12:46 30.82967 121.91151 11465 ft 307 kts 156°
2026-05-06 12:46 30.81245 121.92625 12115 ft 315 kts 130°
2026-05-06 12:47 30.80231 121.94958 12559 ft 330 kts 103°
2026-05-06 12:47 30.80215 121.97713 12632 ft 354 kts 75°
2026-05-06 12:47 30.81255 122.00430 12873 ft 370 kts 59°
2026-05-06 12:47 30.82488 122.03175 13022 ft 388 kts 65°
2026-05-06 12:48 30.83480 122.06119 13653 ft 392 kts 69°
2026-05-06 12:48 30.84409 122.09204 14127 ft 400 kts 70°
2026-05-06 12:48 30.85313 122.12292 14777 ft 402 kts 70°
2026-05-06 12:48 30.86203 122.15395 15299 ft 408 kts 71°
2026-05-06 12:49 30.86880 122.18620 15845 ft 413 kts 81°
2026-05-06 12:49 30.86901 122.22038 16321 ft 419 kts 100°
2026-05-06 12:49 30.85943 122.25307 16869 ft 420 kts 117°
2026-05-06 12:49 30.84520 122.28255 17365 ft 423 kts 125°
2026-05-06 12:50 30.82462 122.30791 17761 ft 423 kts 148°
2026-05-06 12:50 30.79827 122.32251 18356 ft 418 kts 165°
2026-05-06 12:50 30.77021 122.33227 18778 ft 423 kts 165°
2026-05-06 12:50 30.74192 122.34315 19206 ft 428 kts 164°
2026-05-06 12:51 30.71334 122.35433 19627 ft 432 kts 165°
2026-05-06 12:51 30.68438 122.36520 20088 ft 434 kts 165°
2026-05-06 12:51 30.65502 122.37605 20511 ft 438 kts 165°
2026-05-06 12:51 30.62571 122.38651 20938 ft 440 kts 167°
2026-05-06 12:52 30.59588 122.39502 21268 ft 442 kts 174°
2026-05-06 12:52 30.56487 122.39758 21699 ft 438 kts 185°
2026-05-06 12:52 30.53437 122.39618 22085 ft 440 kts 187°
2026-05-06 12:52 30.50355 122.39462 22463 ft 443 kts 186°
2026-05-06 12:53 30.47264 122.39329 22900 ft 444 kts 186°
2026-05-06 12:53 30.44136 122.39184 23222 ft 447 kts 187°
2026-05-06 12:53 30.41012 122.39023 23607 ft 449 kts 187°
2026-05-06 12:53 30.37871 122.38855 23979 ft 451 kts 187°
2026-05-06 12:54 30.34734 122.38685 24338 ft 453 kts 187°
2026-05-06 12:54 30.31568 122.38511 24692 ft 454 kts 187°
2026-05-06 12:54 30.28390 122.38334 25035 ft 456 kts 187°
2026-05-06 12:54 30.25210 122.38155 25368 ft 458 kts 187°
2026-05-06 12:55 30.21987 122.37973 25649 ft 461 kts 187°
2026-05-06 12:55 30.18799 122.37791 25852 ft 465 kts 187°
2026-05-06 12:55 30.15521 122.37606 26222 ft 465 kts 187°
2026-05-06 12:55 30.12279 122.37421 26464 ft 468 kts 187°
2026-05-06 12:56 30.09034 122.37236 26755 ft 470 kts 187°
2026-05-06 12:56 30.05726 122.37048 27067 ft 471 kts 187°
2026-05-06 12:56 30.02433 122.36860 27349 ft 473 kts 187°
2026-05-06 12:56 30.00232 122.36734 27514 ft 475 kts 187°
2026-05-06 12:57 29.86249 122.38085 28577 ft 491 kts 172°
2026-05-06 12:58 29.82851 122.38867 28792 ft 493 kts 172°
2026-05-06 12:58 29.79501 122.39614 29020 ft 494 kts 173°
2026-05-06 12:58 29.76071 122.40383 29240 ft 496 kts 172°
2026-05-06 12:58 29.72649 122.41164 29448 ft 498 kts 172°
2026-05-06 12:59 29.69243 122.41951 29853 ft 495 kts 172°
2026-05-06 12:59 29.65886 122.42727 30212 ft 493 kts 173°
2026-05-06 12:59 29.62503 122.43507 30487 ft 493 kts 173°
2026-05-06 12:59 29.59116 122.44289 30825 ft 492 kts 173°
2026-05-06 13:00 29.55742 122.45070 31122 ft 491 kts 172°
2026-05-06 13:00 29.52402 122.45843 31415 ft 491 kts 172°
2026-05-06 13:00 29.49020 122.46626 31708 ft 490 kts 172°
2026-05-06 13:00 29.45647 122.47407 31994 ft 490 kts 172°
2026-05-06 13:01 29.42277 122.48187 32276 ft 489 kts 172°
2026-05-06 13:01 29.38968 122.48953 32548 ft 489 kts 172°
2026-05-06 13:01 29.35573 122.49738 32823 ft 488 kts 172°
2026-05-06 13:01 29.32242 122.50508 33090 ft 488 kts 172°
2026-05-06 13:02 29.28890 122.51283 33354 ft 487 kts 172°
2026-05-06 13:02 29.25529 122.51990 33605 ft 484 kts 177°
2026-05-06 13:02 29.22175 122.52211 33772 ft 480 kts 186°
2026-05-06 13:02 29.18897 122.51762 34043 ft 470 kts 197°
2026-05-06 13:03 29.15804 122.50671 34278 ft 463 kts 207°
2026-05-06 13:03 29.12888 122.49087 34529 ft 458 kts 212°
2026-05-06 13:03 29.10050 122.47368 34826 ft 456 kts 212°
2026-05-06 13:03 29.07251 122.45717 35057 ft 456 kts 212°
2026-05-06 13:04 29.04394 122.44067 35314 ft 455 kts 212°
2026-05-06 13:04 29.01543 122.42412 35581 ft 454 kts 212°
2026-05-06 13:04 28.98732 122.40768 35829 ft 453 kts 212°
2026-05-06 13:04 28.95919 122.39118 36054 ft 452 kts 212°
2026-05-06 13:05 28.93122 122.37479 36091 ft 456 kts 212°
2026-05-06 13:05 28.87442 122.34152 36094 ft 454 kts 212°
2026-05-06 13:06 28.81839 122.30872 36094 ft 451 kts 212°
2026-05-06 13:06 28.76199 122.27569 36095 ft 452 kts 212°
2026-05-06 13:07 28.70562 122.24271 36095 ft 454 kts 212°
2026-05-06 13:07 28.64945 122.20992 36094 ft 451 kts 212°
2026-05-06 13:08 28.59352 122.17728 36094 ft 450 kts 212°
2026-05-06 13:08 28.53723 122.14447 36094 ft 451 kts 212°
2026-05-06 13:09 28.48131 122.11192 36094 ft 451 kts 212°
2026-05-06 13:09 28.42517 122.07928 36094 ft 451 kts 212°
2026-05-06 13:10 28.36911 122.04672 36094 ft 451 kts 212°
2026-05-06 13:10 28.31299 122.01417 36094 ft 451 kts 212°
2026-05-06 13:11 28.25697 121.98171 36094 ft 451 kts 212°
2026-05-06 13:11 28.20086 121.94925 36093 ft 447 kts 212°
2026-05-06 13:12 28.14518 121.91708 36094 ft 446 kts 212°
2026-05-06 13:12 28.08956 121.88496 36094 ft 444 kts 212°
2026-05-06 13:13 28.03833 121.84763 36093 ft 433 kts 226°
2026-05-06 13:13 28.01757 121.82285 36095 ft 427 kts 237°
2026-05-06 13:13 28.00096 121.79507 36095 ft 423 kts 244°
2026-05-06 13:14 27.97942 121.73356 36097 ft 417 kts 260°
2026-05-06 13:14 27.96701 121.66944 36093 ft 415 kts 259°
2026-05-06 13:15 27.95374 121.60590 36094 ft 412 kts 259°
2026-05-06 13:15 27.94078 121.54282 36094 ft 412 kts 259°
2026-05-06 13:16 27.92768 121.47921 36094 ft 413 kts 259°
2026-05-06 13:16 27.91463 121.41595 36094 ft 413 kts 259°
2026-05-06 13:17 27.90144 121.35213 36094 ft 413 kts 259°
2026-05-06 13:17 27.88842 121.28926 36094 ft 413 kts 259°
2026-05-06 13:18 27.87522 121.22565 36093 ft 414 kts 259°
2026-05-06 13:18 27.86194 121.16183 36094 ft 415 kts 259°
2026-05-06 13:19 27.84864 121.09810 36094 ft 415 kts 259°
2026-05-06 13:19 27.83539 121.03474 36094 ft 415 kts 259°
2026-05-06 13:20 27.82213 120.97147 36094 ft 415 kts 259°
2026-05-06 13:20 27.80874 120.90774 36094 ft 415 kts 259°
2026-05-06 13:21 27.79535 120.84415 36094 ft 415 kts 259°
2026-05-06 13:21 27.78196 120.78076 36094 ft 415 kts 259°
2026-05-06 13:22 27.76857 120.71761 36122 ft 414 kts 259°
2026-05-06 13:22 27.74775 120.65685 36120 ft 420 kts 243°
2026-05-06 13:23 27.71076 120.60585 36120 ft 423 kts 227°
2026-05-06 13:23 27.66214 120.56724 36122 ft 431 kts 217°
2026-05-06 13:24 27.61129 120.53129 36120 ft 432 kts 218°
2026-05-06 13:24 27.56030 120.49459 36121 ft 432 kts 218°
2026-05-06 13:25 27.50968 120.45847 36121 ft 431 kts 218°
2026-05-06 13:25 27.45867 120.42210 36121 ft 431 kts 218°
2026-05-06 13:26 27.40765 120.38580 36121 ft 432 kts 218°
2026-05-06 13:26 27.35699 120.34982 36121 ft 432 kts 217°
2026-05-06 13:27 27.30579 120.31358 36121 ft 432 kts 217°
2026-05-06 13:27 27.25498 120.27765 36121 ft 432 kts 217°
2026-05-06 13:28 27.20395 120.24160 36120 ft 433 kts 217°
2026-05-06 13:28 27.15247 120.20526 36122 ft 439 kts 217°
2026-05-06 13:29 27.10149 120.16928 36121 ft 438 kts 217°
2026-05-06 13:29 27.05041 120.13294 36121 ft 437 kts 217°
2026-05-06 13:30 26.99873 120.09626 36121 ft 437 kts 217°
2026-05-06 13:30 26.94781 120.06016 36121 ft 437 kts 217°
2026-05-06 13:31 26.89758 120.02459 36121 ft 437 kts 217°
2026-05-06 13:31 26.84678 119.98866 36121 ft 437 kts 217°
2026-05-06 13:32 26.79646 119.95310 36121 ft 437 kts 217°
2026-05-06 13:32 26.74577 119.91733 36121 ft 437 kts 217°
2026-05-06 13:33 26.69524 119.88170 36121 ft 439 kts 218°
2026-05-06 13:33 26.64321 119.84505 36121 ft 440 kts 217°
2026-05-06 13:34 26.59200 119.80903 36121 ft 440 kts 217°
2026-05-06 13:34 26.54098 119.77318 36121 ft 439 kts 217°
2026-05-06 13:35 26.49152 119.73846 36122 ft 438 kts 218°
2026-05-06 13:35 26.43904 119.70165 36121 ft 436 kts 218°
2026-05-06 13:36 26.38677 119.66499 36121 ft 436 kts 218°
2026-05-06 13:36 26.33431 119.62825 36121 ft 437 kts 218°
2026-05-06 13:37 26.28218 119.59177 36121 ft 437 kts 218°
2026-05-06 13:37 26.22870 119.55685 36120 ft 441 kts 212°
2026-05-06 13:38 26.16949 119.53243 36122 ft 451 kts 202°
2026-05-06 13:38 26.10847 119.51135 36120 ft 451 kts 203°
2026-05-06 13:39 26.04782 119.49007 36121 ft 450 kts 203°
2026-05-06 13:39 25.98717 119.46921 36121 ft 450 kts 203°
2026-05-06 13:40 25.91626 119.44493 36121 ft 451 kts 203°
2026-05-06 13:40 25.86557 119.42766 36121 ft 451 kts 203°
2026-05-06 13:41 25.80460 119.40694 36121 ft 451 kts 202°
2026-05-06 13:41 25.74661 119.38080 36121 ft 440 kts 217°
2026-05-06 13:42 25.69964 119.33689 36124 ft 431 kts 232°
2026-05-06 13:42 25.65803 119.28735 36121 ft 432 kts 231°
2026-05-06 13:43 25.61595 119.23870 36120 ft 431 kts 231°
2026-05-06 13:43 25.57401 119.18964 36121 ft 433 kts 231°
2026-05-06 13:44 25.53181 119.14034 36121 ft 434 kts 231°
2026-05-06 13:44 25.48952 119.09090 36121 ft 433 kts 231°
2026-05-06 13:45 25.44748 119.04177 36121 ft 433 kts 231°
2026-05-06 13:45 25.38414 118.96783 36121 ft 433 kts 231°
2026-05-06 13:46 25.34194 118.91863 36121 ft 433 kts 231°
2026-05-06 13:46 25.30046 118.86874 36121 ft 432 kts 232°
2026-05-06 13:47 25.25915 118.81850 36093 ft 433 kts 232°
2026-05-06 13:47 25.21801 118.76878 36094 ft 434 kts 232°
2026-05-06 13:48 25.17659 118.71872 36093 ft 434 kts 232°
2026-05-06 13:48 25.13506 118.66863 36094 ft 433 kts 232°
2026-05-06 13:49 25.09382 118.61893 36094 ft 433 kts 232°
2026-05-06 13:49 25.05152 118.56988 36094 ft 435 kts 231°
2026-05-06 13:50 25.00937 118.52181 36094 ft 434 kts 231°
2026-05-06 13:50 24.96762 118.47392 36094 ft 434 kts 231°
2026-05-06 13:51 24.92575 118.42600 36094 ft 434 kts 231°
2026-05-06 13:51 24.88415 118.37840 36094 ft 434 kts 231°
2026-05-06 13:52 24.84286 118.33122 36094 ft 434 kts 231°
2026-05-06 13:52 24.80089 118.28329 36094 ft 435 kts 231°
2026-05-06 13:53 24.75884 118.23533 36093 ft 435 kts 231°
2026-05-06 13:53 24.71635 118.18687 36095 ft 438 kts 230°
2026-05-06 13:54 24.67368 118.13831 36094 ft 439 kts 230°
2026-05-06 13:54 24.63107 118.08994 36094 ft 438 kts 230°
2026-05-06 13:55 24.58810 118.04118 36094 ft 438 kts 230°
2026-05-06 13:55 24.54614 117.99297 36094 ft 437 kts 232°
2026-05-06 13:56 24.50572 117.94355 36094 ft 437 kts 232°
2026-05-06 13:56 24.46517 117.89448 36094 ft 437 kts 232°
2026-05-06 13:57 24.42414 117.84493 36094 ft 437 kts 232°
2026-05-06 13:57 24.38371 117.79615 36094 ft 437 kts 232°
2026-05-06 13:58 24.34320 117.74735 36094 ft 437 kts 232°
2026-05-06 13:58 24.30244 117.69832 36094 ft 435 kts 232°
2026-05-06 13:59 24.26190 117.64960 36094 ft 435 kts 232°
2026-05-06 13:59 24.22290 117.60277 36095 ft 437 kts 232°
2026-05-06 14:00 24.18161 117.55326 36094 ft 438 kts 232°
2026-05-06 14:00 24.14090 117.50459 36094 ft 438 kts 231°
2026-05-06 14:01 24.09688 117.45991 36094 ft 441 kts 225°
2026-05-06 14:01 24.05148 117.41603 36094 ft 440 kts 226°
2026-05-06 14:02 24.00612 117.37154 36094 ft 441 kts 226°
2026-05-06 14:02 23.96162 117.32804 36094 ft 441 kts 226°
2026-05-06 14:03 23.91504 117.28251 36094 ft 441 kts 226°
2026-05-06 14:03 23.86854 117.23710 36095 ft 440 kts 226°
2026-05-06 14:04 23.82245 117.19212 36094 ft 438 kts 226°
2026-05-06 14:04 23.77615 117.14696 36094 ft 438 kts 226°
2026-05-06 14:05 23.73189 117.10008 36094 ft 437 kts 231°
2026-05-06 14:05 23.68980 117.05077 36094 ft 439 kts 230°
2026-05-06 14:06 23.64756 117.00260 36094 ft 438 kts 230°
2026-05-06 14:06 23.60553 116.95464 36094 ft 438 kts 230°
2026-05-06 14:07 23.56361 116.90694 36094 ft 438 kts 230°
2026-05-06 14:07 23.52142 116.85899 36094 ft 438 kts 230°
2026-05-06 14:08 23.47936 116.81128 36094 ft 438 kts 230°
2026-05-06 14:08 23.43664 116.76505 36093 ft 441 kts 225°
2026-05-06 14:09 23.38841 116.72452 36093 ft 442 kts 221°
2026-05-06 14:09 23.34047 116.68436 36094 ft 441 kts 222°
2026-05-06 14:10 23.29181 116.64367 36094 ft 442 kts 222°
2026-05-06 14:10 23.24367 116.60363 36093 ft 442 kts 221°
2026-05-06 14:11 23.19467 116.56292 36094 ft 444 kts 221°
2026-05-06 14:11 23.14592 116.52251 36094 ft 444 kts 221°
2026-05-06 14:12 23.09685 116.48188 36094 ft 443 kts 221°
2026-05-06 14:12 23.04796 116.44144 36094 ft 443 kts 221°
2026-05-06 14:13 22.99894 116.40095 36094 ft 443 kts 221°
2026-05-06 14:13 22.94197 116.35392 36094 ft 443 kts 221°
2026-05-06 14:14 22.90190 116.32063 36094 ft 444 kts 221°
2026-05-06 14:14 22.85307 116.28005 36094 ft 444 kts 221°
2026-05-06 14:15 22.80400 116.23932 36094 ft 443 kts 221°
2026-05-06 14:15 22.75420 116.19981 36092 ft 447 kts 215°
2026-05-06 14:16 22.69611 116.17481 36096 ft 459 kts 194°
2026-05-06 14:16 22.63130 116.17131 36095 ft 467 kts 181°
2026-05-06 14:17 22.56639 116.17336 36093 ft 466 kts 182°
2026-05-06 14:17 22.50101 116.17466 36094 ft 465 kts 182°
2026-05-06 14:18 22.43613 116.17631 36094 ft 466 kts 182°
2026-05-06 14:18 22.37130 116.17799 36094 ft 466 kts 182°
2026-05-06 14:19 22.30596 116.17973 36094 ft 466 kts 182°
2026-05-06 14:19 22.24122 116.18147 36094 ft 466 kts 182°
2026-05-06 14:20 22.17609 116.18323 36094 ft 467 kts 182°
2026-05-06 14:20 22.11074 116.18501 36094 ft 467 kts 182°
2026-05-06 14:21 22.04532 116.18679 36094 ft 467 kts 182°
2026-05-06 14:21 21.98033 116.18856 36094 ft 466 kts 182°
2026-05-06 14:22 21.91487 116.19035 36094 ft 467 kts 182°
2026-05-06 14:22 21.84964 116.19212 36094 ft 466 kts 182°
2026-05-06 14:23 21.78441 116.19389 36094 ft 467 kts 182°
2026-05-06 14:23 21.71917 116.19566 36093 ft 467 kts 182°
2026-05-06 14:24 21.65392 116.19743 36094 ft 469 kts 182°
2026-05-06 14:24 21.58821 116.19971 36093 ft 471 kts 179°
2026-05-06 14:25 21.52334 116.21177 36096 ft 475 kts 167°
2026-05-06 14:25 21.45933 116.23152 36094 ft 475 kts 167°
2026-05-06 14:26 21.39541 116.25047 36094 ft 476 kts 167°
2026-05-06 14:26 21.33128 116.26983 36094 ft 476 kts 167°
2026-05-06 14:27 21.26739 116.28919 36094 ft 476 kts 167°
2026-05-06 14:27 21.20318 116.30866 36094 ft 476 kts 167°
2026-05-06 14:28 21.13946 116.32801 36094 ft 476 kts 167°
2026-05-06 14:28 21.07528 116.34750 36094 ft 476 kts 167°
2026-05-06 14:29 21.01114 116.36697 36094 ft 476 kts 167°
2026-05-06 14:29 20.94723 116.38635 36094 ft 476 kts 167°
2026-05-06 14:30 20.88325 116.40573 35991 ft 477 kts 167°
2026-05-06 14:30 20.81938 116.42507 35994 ft 475 kts 167°
2026-05-06 14:31 20.75560 116.44436 35994 ft 476 kts 167°
2026-05-06 14:31 20.69163 116.46369 35994 ft 475 kts 167°
2026-05-06 14:32 20.62789 116.48294 35994 ft 475 kts 167°
2026-05-06 14:32 20.56388 116.50225 35994 ft 475 kts 167°
2026-05-06 14:33 20.49994 116.52153 35968 ft 475 kts 167°
2026-05-06 14:33 20.42531 116.54401 35967 ft 475 kts 167°
2026-05-06 14:34 20.37233 116.55995 35995 ft 474 kts 167°
2026-05-06 14:34 20.30845 116.57916 35966 ft 476 kts 167°
2026-05-06 14:35 20.24437 116.59841 35967 ft 475 kts 167°
2026-05-06 14:35 20.16990 116.62076 35967 ft 474 kts 167°
2026-05-06 14:36 20.11676 116.63670 35967 ft 474 kts 167°
2026-05-06 14:36 20.05303 116.65588 35966 ft 474 kts 166°
2026-05-06 14:37 19.99293 116.68619 35967 ft 480 kts 145°
2026-05-06 14:37 19.94514 116.73629 35967 ft 484 kts 133°
2026-05-06 14:38 19.89941 116.78954 35966 ft 485 kts 134°
2026-05-06 14:38 19.85325 116.84237 35967 ft 485 kts 134°
2026-05-06 14:39 19.80753 116.89516 35992 ft 484 kts 134°
2026-05-06 14:39 19.76154 116.94826 35994 ft 485 kts 134°
2026-05-06 14:40 19.71572 117.00116 35912 ft 481 kts 134°
2026-05-06 14:40 19.67053 117.05332 35913 ft 478 kts 134°
2026-05-06 14:41 19.62515 117.10567 35913 ft 480 kts 134°
2026-05-06 14:41 19.57186 117.16708 35913 ft 481 kts 134°
2026-05-06 14:42 19.53378 117.21094 35913 ft 480 kts 134°
2026-05-06 14:42 19.48814 117.26347 35913 ft 480 kts 134°
2026-05-06 14:43 19.44288 117.31550 35913 ft 478 kts 134°
2026-05-06 14:43 19.39744 117.36771 35913 ft 478 kts 134°
2026-05-06 14:44 19.35200 117.41985 35913 ft 479 kts 134°
2026-05-06 14:45 19.28385 117.49799 35913 ft 479 kts 134°
2026-05-06 14:45 19.23842 117.55002 35915 ft 478 kts 134°
2026-05-06 14:46 19.19329 117.60166 35912 ft 473 kts 134°
2026-05-06 14:46 19.14832 117.65307 35913 ft 474 kts 134°
2026-05-06 14:47 19.10331 117.70447 35913 ft 475 kts 134°
2026-05-06 14:47 19.05813 117.75603 35913 ft 475 kts 134°
2026-05-06 14:48 19.01326 117.80719 35913 ft 476 kts 134°
2026-05-06 14:48 18.96803 117.85871 35913 ft 476 kts 134°
2026-05-06 14:49 18.92264 117.91038 35913 ft 475 kts 134°
2026-05-06 14:49 18.87764 117.96156 35913 ft 475 kts 134°
2026-05-06 14:50 18.83216 118.01324 35913 ft 475 kts 134°
2026-05-06 14:50 18.78702 118.06449 35913 ft 475 kts 134°
2026-05-06 14:51 18.74166 118.11595 35913 ft 475 kts 134°
2026-05-06 14:51 18.69644 118.16719 35913 ft 475 kts 134°
2026-05-06 14:52 18.65135 118.21826 35913 ft 476 kts 134°
2026-05-06 14:52 18.60608 118.26949 35913 ft 476 kts 134°
2026-05-06 14:53 18.56054 118.32098 35913 ft 475 kts 134°
2026-05-06 14:53 18.51516 118.37224 35913 ft 475 kts 134°
2026-05-06 14:54 18.46938 118.42391 35913 ft 475 kts 134°
2026-05-06 14:54 18.42380 118.47532 35913 ft 475 kts 134°
2026-05-06 14:55 18.37083 118.53500 35913 ft 475 kts 134°
2026-05-06 14:55 18.32551 118.58603 35913 ft 475 kts 134°
2026-05-06 14:56 18.28758 118.62869 35913 ft 475 kts 134°
2026-05-06 14:56 18.23461 118.68823 35914 ft 474 kts 134°
2026-05-06 14:57 18.19675 118.73074 35912 ft 471 kts 134°
2026-05-06 14:57 18.15181 118.78117 35913 ft 471 kts 134°
2026-05-06 14:58 18.10631 118.83219 35913 ft 473 kts 134°
2026-05-06 14:58 18.06101 118.88294 35913 ft 472 kts 134°
2026-05-06 14:59 18.01548 118.93280 35912 ft 472 kts 138°
2026-05-06 14:59 17.96342 118.97499 35915 ft 469 kts 151°
2026-05-06 15:00 17.89619 119.01388 35913 ft 469 kts 152°
2026-05-06 15:00 17.83869 119.04788 35913 ft 469 kts 152°
2026-05-06 15:01 17.79101 119.07571 35913 ft 469 kts 152°
2026-05-06 15:01 17.73337 119.10922 35913 ft 469 kts 152°
2026-05-06 15:02 17.66606 119.14825 35913 ft 467 kts 152°
2026-05-06 15:02 17.61802 119.17606 35913 ft 467 kts 152°
2026-05-06 15:03 17.56063 119.20924 35913 ft 467 kts 152°
2026-05-06 15:03 17.49364 119.24792 35913 ft 467 kts 152°
2026-05-06 15:04 17.43582 119.28129 35913 ft 467 kts 152°
2026-05-06 15:04 17.38790 119.30891 35913 ft 466 kts 152°
2026-05-06 15:05 17.33067 119.34187 35913 ft 466 kts 152°
2026-05-06 15:05 17.26394 119.38029 35913 ft 467 kts 152°
2026-05-06 15:06 17.21594 119.40791 35913 ft 465 kts 153°
2026-05-06 15:06 17.14914 119.44631 35913 ft 463 kts 153°
2026-05-06 15:07 17.10168 119.47356 35913 ft 464 kts 153°
2026-05-06 15:07 17.03480 119.51195 35913 ft 464 kts 153°
2026-05-06 15:08 16.97779 119.54465 35913 ft 464 kts 153°
2026-05-06 15:08 16.93037 119.57183 35913 ft 464 kts 153°
2026-05-06 15:09 16.86358 119.61009 35913 ft 464 kts 153°
2026-05-06 15:09 16.80630 119.64286 35913 ft 464 kts 153°
2026-05-06 15:10 16.74954 119.67532 35913 ft 464 kts 153°
2026-05-06 15:10 16.70219 119.70239 35913 ft 462 kts 153°
2026-05-06 15:11 16.63562 119.74041 35923 ft 462 kts 153°
2026-05-06 15:11 16.57917 119.77264 35967 ft 461 kts 152°
2026-05-06 15:12 16.52297 119.80469 35967 ft 461 kts 152°
2026-05-06 15:12 16.47600 119.83146 35967 ft 461 kts 152°
2026-05-06 15:12 16.43862 119.85276 35700 ft 454 kts 152°
2026-05-06 15:13 16.41111 119.86844 35450 ft 447 kts 152°
2026-05-06 15:13 16.38364 119.88408 35198 ft 444 kts 152°
2026-05-06 15:13 16.35681 119.89934 34954 ft 445 kts 152°
2026-05-06 15:13 16.32943 119.91492 34704 ft 446 kts 152°
2026-05-06 15:14 16.30197 119.93053 34453 ft 447 kts 152°
2026-05-06 15:14 16.28409 119.94070 34290 ft 448 kts 152°
2026-05-06 15:14 16.24753 119.96148 33957 ft 450 kts 152°
2026-05-06 15:14 16.22914 119.97192 33791 ft 452 kts 152°
2026-05-06 15:15 16.19227 119.99287 33456 ft 453 kts 152°
2026-05-06 15:15 16.16481 120.00847 33207 ft 454 kts 152°
2026-05-06 15:15 16.13711 120.02419 32956 ft 454 kts 152°
2026-05-06 15:15 16.10926 120.03999 32704 ft 455 kts 152°
2026-05-06 15:16 16.08113 120.05595 32450 ft 455 kts 152°
2026-05-06 15:16 16.05360 120.07157 31999 ft 454 kts 152°
2026-05-06 15:16 16.02570 120.08740 31159 ft 453 kts 152°
2026-05-06 15:16 15.99805 120.10306 30433 ft 450 kts 152°
2026-05-06 15:17 15.97066 120.11858 29610 ft 449 kts 152°
2026-05-06 15:17 15.95219 120.12904 29020 ft 449 kts 152°
2026-05-06 15:17 15.91619 120.14943 28143 ft 441 kts 152°
2026-05-06 15:17 15.88965 120.16445 27545 ft 435 kts 152°
2026-05-06 15:18 15.86354 120.17923 26996 ft 428 kts 152°
2026-05-06 15:18 15.83743 120.19400 26334 ft 424 kts 152°
2026-05-06 15:18 15.81132 120.20876 25673 ft 420 kts 152°
2026-05-06 15:18 15.78590 120.22313 25052 ft 415 kts 152°
2026-05-06 15:19 15.76042 120.23753 24400 ft 411 kts 152°
2026-05-06 15:19 15.73534 120.25171 23756 ft 408 kts 152°
2026-05-06 15:19 15.71868 120.26112 23313 ft 406 kts 151°
2026-05-06 15:19 15.68582 120.27967 22469 ft 401 kts 151°
2026-05-06 15:20 15.66142 120.29345 21853 ft 397 kts 151°
2026-05-06 15:20 15.63740 120.30700 21249 ft 393 kts 151°
2026-05-06 15:20 15.61332 120.32059 20626 ft 389 kts 151°
2026-05-06 15:20 15.58947 120.33405 20017 ft 385 kts 151°
2026-05-06 15:21 15.56601 120.34727 19415 ft 382 kts 151°
2026-05-06 15:21 15.54261 120.36047 18801 ft 378 kts 151°
2026-05-06 15:21 15.51943 120.37354 18092 ft 377 kts 151°
2026-05-06 15:21 15.49630 120.38657 17482 ft 374 kts 151°
2026-05-06 15:22 15.47354 120.39940 16898 ft 369 kts 151°
2026-05-06 15:22 15.45109 120.41205 16438 ft 362 kts 150°
2026-05-06 15:22 15.42939 120.42412 16189 ft 349 kts 152°
2026-05-06 15:22 15.40737 120.43408 15969 ft 336 kts 160°
2026-05-06 15:23 15.38548 120.44134 15961 ft 319 kts 162°
2026-05-06 15:23 15.36421 120.44827 15972 ft 320 kts 161°
2026-05-06 15:23 15.34294 120.45529 15968 ft 324 kts 161°
2026-05-06 15:23 15.32098 120.46238 15966 ft 324 kts 162°
2026-05-06 15:24 15.29964 120.46919 15967 ft 324 kts 162°
2026-05-06 15:24 15.27801 120.47610 15966 ft 323 kts 162°
2026-05-06 15:24 15.25610 120.48307 15967 ft 323 kts 162°
2026-05-06 15:24 15.23460 120.48991 15967 ft 323 kts 162°
2026-05-06 15:25 15.21307 120.49674 15967 ft 323 kts 162°
2026-05-06 15:25 15.19141 120.50362 15967 ft 323 kts 162°
2026-05-06 15:25 15.16987 120.51046 15830 ft 326 kts 162°
2026-05-06 15:25 15.14799 120.51740 15569 ft 324 kts 162°
2026-05-06 15:26 15.12670 120.52415 15318 ft 320 kts 162°
2026-05-06 15:26 15.10535 120.53093 15065 ft 316 kts 162°
2026-05-06 15:26 15.08438 120.53758 14759 ft 309 kts 162°
2026-05-06 15:26 15.06380 120.54410 14376 ft 311 kts 162°
2026-05-06 15:27 15.04305 120.55068 13964 ft 311 kts 162°
2026-05-06 15:27 15.02223 120.55727 13546 ft 308 kts 162°
2026-05-06 15:27 15.00177 120.56376 13138 ft 305 kts 161°
2026-05-06 15:27 14.98165 120.57013 12736 ft 302 kts 161°
2026-05-06 15:28 14.96160 120.57648 12336 ft 301 kts 161°
2026-05-06 15:28 14.94123 120.58293 11931 ft 305 kts 161°
2026-05-06 15:28 14.92085 120.58938 11520 ft 302 kts 161°
2026-05-06 15:28 14.90081 120.59572 11156 ft 298 kts 160°
2026-05-06 15:29 14.88118 120.60191 10993 ft 291 kts 160°
2026-05-06 15:29 14.86139 120.60819 10748 ft 301 kts 160°
2026-05-06 15:29 14.84140 120.61450 10406 ft 296 kts 160°
2026-05-06 15:29 14.82169 120.62072 10043 ft 292 kts 160°
2026-05-06 15:30 14.80254 120.62676 9916 ft 279 kts 160°
2026-05-06 15:30 14.78363 120.63275 9515 ft 285 kts 160°
2026-05-06 15:30 14.76476 120.63872 9151 ft 282 kts 160°
2026-05-06 15:30 14.74593 120.64465 8794 ft 280 kts 160°
2026-05-06 15:31 14.72724 120.65056 8440 ft 276 kts 160°
2026-05-06 15:31 14.70891 120.65635 8092 ft 273 kts 160°
2026-05-06 15:31 14.69063 120.66212 7742 ft 270 kts 160°
2026-05-06 15:32 14.65483 120.67342 7060 ft 264 kts 160°
2026-05-06 15:32 14.63751 120.67889 6729 ft 261 kts 161°
2026-05-06 15:32 14.62029 120.68436 6504 ft 253 kts 158°
2026-05-06 15:32 14.60472 120.69215 6282 ft 244 kts 147°
2026-05-06 15:33 14.59010 120.70098 5974 ft 241 kts 148°
2026-05-06 15:33 14.57541 120.70956 5676 ft 239 kts 148°
2026-05-06 15:33 14.56095 120.71803 5386 ft 239 kts 148°
2026-05-06 15:33 14.54624 120.72665 5197 ft 234 kts 149°
2026-05-06 15:34 14.53233 120.73479 5133 ft 226 kts 148°
2026-05-06 15:34 14.51878 120.74273 5053 ft 223 kts 148°
2026-05-06 15:34 14.50523 120.75066 4864 ft 218 kts 148°
2026-05-06 15:34 14.49211 120.75835 4629 ft 216 kts 148°
2026-05-06 15:35 14.47883 120.76615 4393 ft 218 kts 148°
2026-05-06 15:35 14.46555 120.77394 4156 ft 221 kts 147°
2026-05-06 15:35 14.45196 120.78191 3913 ft 223 kts 147°
2026-05-06 15:35 14.43838 120.78987 3670 ft 225 kts 148°
2026-05-06 15:36 14.42457 120.79796 3424 ft 225 kts 148°
2026-05-06 15:36 14.41206 120.80717 3173 ft 220 kts 127°
2026-05-06 15:36 14.40603 120.82102 2957 ft 212 kts 94°
2026-05-06 15:36 14.40724 120.83627 2794 ft 210 kts 70°
2026-05-06 15:37 14.41388 120.84948 2646 ft 205 kts 58°
2026-05-06 15:37 14.42087 120.86183 2471 ft 192 kts 60°
2026-05-06 15:37 14.42734 120.87346 2329 ft 179 kts 60°
2026-05-06 15:37 14.43327 120.88412 2199 ft 166 kts 60°
2026-05-06 15:38 14.43892 120.89436 2083 ft 161 kts 60°
2026-05-06 15:38 14.44434 120.90411 1945 ft 152 kts 60°
2026-05-06 15:38 14.44948 120.91328 1857 ft 145 kts 60°
2026-05-06 15:38 14.45460 120.92241 1715 ft 148 kts 60°
2026-05-06 15:39 14.45974 120.93151 1532 ft 147 kts 60°
2026-05-06 15:39 14.46490 120.94064 1339 ft 147 kts 60°
2026-05-06 15:39 14.47001 120.94971 1146 ft 147 kts 60°
2026-05-06 15:39 14.47512 120.95886 951 ft 147 kts 60°
2026-05-06 15:40 14.48022 120.96800 756 ft 146 kts 60°
2026-05-06 15:40 14.48523 120.97704 565 ft 145 kts 61°
2026-05-06 15:40 14.49023 120.98601 376 ft 145 kts 60°
2026-05-06 15:40 14.49519 120.99490 212 ft 145 kts 60°
2026-05-06 15:41 14.50013 121.00390 112 ft 146 kts 62°
2026-05-06 15:41 14.50476 121.01258 85 ft 125 kts 60°
2026-05-06 15:41 14.50839 121.01914 84 ft 75 kts 60°
2026-05-06 15:41 14.51001 121.02207 84 ft 34 kts 60°
2026-05-06 15:42 14.51106 121.02390 84 ft 25 kts 60°
2026-05-06 15:42 14.51178 121.02518 84 ft 16 kts 56°
2026-05-06 15:42 14.51245 121.02546 84 ft 7 kts 346°
2026-05-06 15:42 14.51283 121.02526 84 ft 4 kts 323°
2026-05-06 15:43 14.51301 121.02505 84 ft 3 kts 296°
2026-05-06 15:43 14.51304 121.02479 84 ft 4 kts 266°
2026-05-06 15:43 14.51296 121.02450 84 ft 4 kts 246°
2026-05-06 15:43 14.51282 121.02422 84 ft 4 kts 241°
2026-05-06 15:44 14.51267 121.02394 84 ft 4 kts 240°
2026-05-06 15:44 14.51251 121.02368 84 ft 4 kts 239°
2026-05-06 15:44 14.51235 121.02338 84 ft 5 kts 239°
2026-05-06 15:44 14.51213 121.02300 84 ft 7 kts 239°
2026-05-06 15:45 14.51186 121.02251 84 ft 8 kts 240°
2026-05-06 15:45 14.51154 121.02193 84 ft 10 kts 242°
2026-05-06 15:45 14.51117 121.02126 84 ft 10 kts 240°
2026-05-06 15:45 14.51080 121.02062 84 ft 10 kts 240°
2026-05-06 15:46 14.51066 121.02020 84 ft 5 kts 270°
2026-05-06 15:46 14.51084 121.01976 84 ft 7 kts 309°
2026-05-06 15:46 14.51123 121.01933 84 ft 9 kts 316°
2026-05-06 15:46 14.51173 121.01885 84 ft 10 kts 313°
2026-05-06 15:47 14.51226 121.01828 84 ft 11 kts 314°
2026-05-06 15:47 14.51284 121.01766 84 ft 12 kts 315°
2026-05-06 15:47 14.51348 121.01701 84 ft 11 kts 315°
2026-05-06 15:47 14.51395 121.01652 84 ft 9 kts 314°
2026-05-06 15:48 14.51456 121.01621 84 ft 10 kts
2026-05-06 15:48 14.51500 121.01649 84 ft 7 kts 41°
2026-05-06 15:48 14.51541 121.01689 84 ft 9 kts 44°
2026-05-06 15:48 14.51589 121.01739 84 ft 10 kts 46°
2026-05-06 15:49 14.51652 121.01783 84 ft 11 kts
2026-05-06 15:49 14.51723 121.01745 84 ft 9 kts 310°
2026-05-06 15:49 14.51702 121.01705 84 ft 4 kts 208°
2026-05-06 15:49 14.51684 121.01696 84 ft 1 kts 204°
2026-05-06 15:50 14.51677 121.01694 84 ft 0 kts 204°
2026-05-06 15:50 14.51675 121.01692 84 ft 0 kts 204°